Showing default

LARES-2, 53105

Orbit data source: Space-Track

LARES-2, 53105 is a payload satellite owned by ASI (IT) that was launched on Wed, 13 Jul 2022 UTC via a VEGA C launch vehicle from the French Guiana (FRGUI). Payload-class satellites include a variety of spacecraft equipped with specific instruments for various scientific and technological missions. These include communications satellites like Starlink; space stations such as the ISS; scientific satellites like the Hubble; Earth observation satellites from companies like Planet Labs, Umbra, and HawkEye 360; GPS; miniature CubeSats for education and research; and military/defense satellites.

Loading next visibility...
Identifier
53105, 2022-080A
Orbit
Active
Country
Flag of ITIT
Related business
Manufacturer
OHB-I
Mission
Operational Civil Technology
Bus & Motor
LARES, Unknown motor
Mass
295 kg wet, 295 kg dry
Launch date (UTC)
2022-07-13 (4 years ago)
Launch vehicle
VEGA C
Launch site
French Guiana (FRGUI)
Object type
Payload
Rocket body
Debris
Shape & HBR
Sphere, 0.2 m
Radar Cross Section
0.139 m², Medium (>0.1 m² and < 1m²)

Expand to show TLE details & history
Last TLE update: 4 days ago

TLE from 4 days ago
0 LARES-2
1 53105U 22080A   26090.22335241 -.00000019  00000-0  00000-0 0  9996
2 53105  70.1721 332.0673 0005952   3.9036 356.1767  6.38965054 86689
Epoch: 2026-03-31T05:21Z
TLE epoch observation values (Epoch: 2026-03-31T05:21:37.648Z)
Latitude
0.00003°
Longitude
63.0618°
Altitude
5,883.298 km
Speed
5.704 km/s
True Right ascension
22h 08m 17s
True Declination
0° 00' 00"
Sunlit
Object was in daylight at epoch
Visualization orbit readout
Latitude
Unknown
Longitude
Unknown
Altitude
Unknown
Speed
Unknown
Apparent Right ascension
Unknown
Apparent Declination
Unknown
Sunlit
N/A
Visualization observer readout
Local Sidereal Time
20:10:54
Azimuth
Unknown
Elevation
Unknown
Doppler factor
Unknown
Orbital elements
Apogee altitude
5,895.337 km
Perigee altitude
5,880.735 km
Semi-major axis
12,266.173 km
Eccentricity
0.0006
Inclination
70.1721°
RAAN
332.0673°
Arg. of periapsis
3.9036°
True anomaly
356.17215°
Mean anomaly
356.1767°
Eccentric anomaly
356.17442°
Mean motion
1.59764 °/min
Orbital period
225.33 mins
BSTAR
0
Loading maneuver chart data...
Computing Atmospheric mass density...
Loading historical data...
Loading historical data...
Loading historical data...
Loading historical data...
Loading historical data...
Loading historical data...
Loading historical data...

Documentation

Showing up to 5 results
|